This demonstration page uses our WeatherBlox Daily Observations layout. Learn more.

Left ArrowRight Arrow

38.80484, -77.04692

Hourly Observations for August 20, 2019

Temp ( °F °C ) Dew Point ( °F °C ) Humidity (%) Winds ( mph kmh ) Pressure ( in mb ) Visibility ( mi km ) Precip ( " mm )
12:52 am 00:52 Cloudy 81 27.2 66 18.9 61 61 SE 5 7 30.02 1017 10 16 0.00 0.00
1:52 am 01:52 Cloudy 80 26.7 67 19.4 64 64 SW 7 11 30.03 1017 10 16 0.00 0.00
2:52 am 02:52 Partly Cloudy 79 26.1 68 20 69 69 WNW 6 9 30.04 1017 10 16 0.00 0.00
3:52 am 03:52 Mostly Cloudy 77 25 69 20.6 77 77 N 5 7 30.04 1017 10 16 0.00 0.00
4:52 am 04:52 Mostly Cloudy 76 24.4 69 20.6 79 79 N 7 11 30.05 1018 10 16 0.00 0.00
5:52 am 05:52 Mostly Cloudy 76 24.4 69 20.6 79 79 NNW 5 7 30.06 1018 10 16 0.00 0.00
6:52 am 06:52 Mostly Cloudy 78 25.6 70 21.1 76 76 N 5 7 30.06 1018 10 16 0.00 0.00
7:52 am 07:52 Mostly Cloudy 81 27.2 71 21.7 72 72 N 5 7 30.08 1019 10 16 0.00 0.00
8:52 am 08:52 Mostly Cloudy 84 28.9 72 22.2 67 67 NE 6 9 30.09 1019 10 16 0.00 0.00
9:52 am 09:52 Mostly Cloudy 86 30 73 22.8 65 65 NNE 6 9 30.09 1019 10 16 0.00 0.00
10:52 am 10:52 Mostly Cloudy 91 32.8 72 22.2 54 54 E 6 9 30.09 1019 10 16 0.00 0.00
11:52 am 11:52 Partly Cloudy 92 33.3 71 21.7 51 51 E 8 13 30.09 1019 10 16 0.00 0.00
12:52 pm 12:52 Mostly Sunny 94 34.4 71 21.7 48 48 SE 9 15 30.06 1018 10 16 0.00 0.00
1:52 pm 13:52 Partly Cloudy 95 35 71 21.7 46 46 SE 8 13 30.05 1018 10 16 0.00 0.00
2:52 pm 14:52 Partly Cloudy 96 35.6 72 22.2 46 46 E 12 19 30.03 1017 10 16 0.00 0.00
3:10 pm 15:10 Mostly Cloudy with Thunderstorms 92 33.3 70 21.1 49 49 E 7 11 30.03 1017 10 16 0.00 0.00
3:52 pm 15:52 Mostly Cloudy 93 33.9 71 21.7 49 49 SE 8 13 30.02 1017 10 16 0.00 0.00
4:31 pm 16:31 Mostly Cloudy 94 34.4 72 22.2 49 49 ESE 10 17 30.02 1016 10 16 0.00 0.00
4:39 pm 16:39 Mostly Cloudy with Nearby Thunderstorms 93 33.9 72 22.2 50 50 E 13 20 30.02 1016 10 16 0.00 0.00
4:42 pm 16:42 Mostly Cloudy with Thunderstorms 93 33.9 72 22.2 50 50 E 10 17 30.01 1016 10 16 0.00 0.00
4:52 pm 16:52 Mostly Cloudy with Thunderstorms 93 33.9 73 22.8 52 52 E 8 13 30.00 1016 10 16 0.00 0.00
5:02 pm 17:02 Mostly Cloudy with Thunderstorms 92 33.3 72 22.2 52 52 ESE 7 11 30.02 1016 10 16 0.00 0.00
5:14 pm 17:14 Mostly Cloudy with Thunderstorms 83 28.3 67 19.4 59 59 ESE 23 37 30.04 1017 10 16 0.00 0.00
5:25 pm 17:25 Cloudy with Thunderstorms 80 26.7 68 20 67 67 NNE 14 22 30.07 1018 10 16 0.00 0.00
5:30 pm 17:30 Windy with Storms Likely 79 26.1 69 20.6 72 72 NE 28 44 30.05 1018 5 8 0.00 0.00
5:32 pm 17:32 Cloudy with Strong Thunderstorms 78 25.6 70 21.1 76 76 NNE 31 50 30.04 1017 2 2 0.00 0.00
5:34 pm 17:34 Cloudy with Strong Thunderstorms 75 23.9 70 21.1 84 84 NNE 20 31 30.06 1018 1 1 0.03 0.76
5:39 pm 17:39 Cloudy with Strong Thunderstorms 74 23.3 70 21.1 88 88 NE 24 39 30.06 1018 1 2 0.17 4.32
5:52 pm 17:52 Cloudy with Thunderstorms 75 23.9 70 21.1 84 84 ESE 18 30 30.04 1017 7 11 0.35 8.89
6:04 pm 18:04 Cloudy with Thunderstorms 78 25.6 67 19.4 69 69 ENE 13 20 30.02 1017 10 16 0.01 0.25
6:52 pm 18:52 Cloudy with Thunderstorms 77 25 70 21.1 79 79 VRB 3 6 30.05 1018 10 16 0.01 0.25
7:06 pm 19:06 Cloudy with Nearby Thunderstorms 78 25.6 68 20 71 71 SSW 3 6 30.05 1018 10 16 0.00 0.00
7:13 pm 19:13 Cloudy 79 26.1 68 20 69 69 SW 13 20 30.05 1018 10 16 0.00 0.00
7:28 pm 19:28 Cloudy with Thunderstorms 77 25 69 20.6 77 77 WSW 10 17 30.05 1018 10 16 0.00 0.00
7:52 pm 19:52 Cloudy 76 24.4 69 20.6 79 79 WNW 7 11 30.06 1018 10 16 0.00 0.00
8:00 pm 20:00 Cloudy with Nearby Thunderstorms 78 25.6 69 20.6 74 74 SW 7 11 30.07 1018 10 16 0.00 0.00
8:52 pm 20:52 Cloudy with Nearby Thunderstorms 76 24.4 69 20.6 79 79 S 7 11 30.07 1018 10 16 0.00 0.00
9:35 pm 21:35 Cloudy with Thunderstorms 76 24.4 71 21.7 85 85 SSE 8 13 30.03 1017 10 16 0.00 0.00
9:47 pm 21:47 Cloudy with Nearby Thunderstorms 75 24 70 21 83 83 S 6 9 30.03 1017 10 16 0.00 0.00
9:52 pm 21:52 Cloudy with Nearby Thunderstorms 75 23.9 70 21.1 84 84 SSW 5 7 30.03 1017 10 16 0.00 0.00
10:19 pm 22:19 Mostly Cloudy with Nearby Thunderstorms 75 23.9 70 21.1 84 84 S 3 6 30.03 1017 10 16 0.00 0.00
10:34 pm 22:34 Mostly Cloudy 75 23.9 69 20.6 82 82 SW 7 11 30.02 1017 10 16 0.00 0.00
10:52 pm 22:52 Mostly Cloudy 75 23.9 69 20.6 82 82 S 8 13 30.03 1017 10 16 0.00 0.00
11:23 pm 23:23 Partly Cloudy with Nearby Thunderstorms 75 23.9 67 19.4 76 76 S 9 15 30.04 1017 10 16 0.00 0.00
11:38 pm 23:38 Partly Cloudy 75 23.9 66 18.9 74 74 S 12 19 30.05 1018 10 16 0.00 0.00
11:52 pm 23:52 Partly Cloudy 75 23.9 67 19.4 76 76 SSE 9 15 30.06 1018 10 16 0.00 0.00

Powered by AerisWeather